Location: Central Coast NSW, Australia
(33.2407°S, 151.4316°E)
Time: 04:55:45
(UTC+11:00)

Tiangong 2 - Visible Passes

Search period start: 26 March 2019 00:00
Search period end: 05 April 2019 00:00
Orbit: 380 x 389 km, 42.8° (Epoch: 25 March)

Date Brightness Start Highest point End Pass type
(mag) Time Alt. Az. Time Alt. Az. Time Alt. Az.
01 Apr 4.0 06:28:31 10° N 06:30:29 15° NE 06:32:29 10° E visible
03 Apr 2.8 06:05:04 10° NNW 06:07:56 30° NE 06:10:50 10° E visible
04 Apr 3.9 05:08:52 15° NE 05:08:52 15° NE 05:10:30 10° E visible
04 Apr 1.2 06:41:48 10° WNW 06:45:00 63° SSW 06:48:14 10° SE visible
